Volver al catálogo

STARLINK-37444

ActivoComunicacionesSSO
NORAD 68817·PAYLOAD·🇺🇸 United States

Lanzado Apr 23, 2026 desde Vandenberg Space Force Base

Loading…

Próximos Pases (próximas 24 horas)

TLE

ActualizadoSource: CelesTrak SupGP

Época: Sep 15, 2026, 04:24 UTC

1 68817C 26089R   26258.18381944 -.00051698  00000+0 -16046-2 0  2583
2 68817  97.2855 104.0357 0002226  93.1742 325.4141 15.33467537    11

Sigue STARLINK-37444 en tiempo real con AllMySat

Download on the App Store